Starlink 3328

operational
NORAD ID: 50832 Int'l Des: 2022-001 Owner: SPXS Country: US Constellation: starlink
LEOCIRCULAR

Starlink 3328について

説明を読み込み中...

リアルタイム位置

3D地球を読み込み中...

次回通過

高度履歴

Altitude vs Time

uPlot chart will show altitude changes over time

軌道要素

1 50832U 22001AF 25308.58999722 -.00000274 00000-0 85844-6 0 9991
2 50832 53.2204 20.7631 0001757 96.8260 263.2932 15.08839362211383
Epoch: Nov 4, 2025 • Age: 18 hours

現在のステータス

高度 541.2 km
速度 7.60 km/s
衛星直下点 32.68°N, 116.36°W
打ち上げ日 Jan 6, 2022
運用期間 3.8 years
タイプ internet

技術仕様

分類 Payload
質量 297.00 kg
乾燥質量 275.00 kg
総質量 297.00 kg
長さ 0.20 m
直径 2.80 m
スパン 9.00 m
形状 Box + pan
製造者 SPXS
バスタイプ Starlink
フェーズステータス In Orbit
所有者/国 SPXS/US

大規模コンステレーション

Loading constellations...